Theta_e
307 307 306 306 306 308 309 310 311 311 311 311 312 312 312 312 314 316 317 316 315 314 314 316 316 317 318 319 315 314 320 320 319 320 321 318 326 317 317 320 317 317 318 323 339
307 307 306 306 307 309 310 311 311 311 311 311 311 311 312 313 315 316 314 316 314 314 315 316 318 318 320 317 316 319 320 319 317 318 320 318 320 319 319 319 320 325 326 333 345
307 307 307 307 309 310 310 311 311 311 311 311 311 312 314 316 314 314 314 315 314 315 315 316 316 317 318 318 316 315 320 317 318 317 318 318 318 316 319 320 321 325 331 341 345
308 307 307 308 309 310 311 311 311 311 311 311 312 312 315 316 316 316 315 314 314 316 316 316 317 318 318 319 316 319 315 317 317 316 316 317 317 318 317 317 318 324 331 340 342
308 308 308 308 309 310 311 311 311 312 312 312 312 312 316 316 316 317 316 315 315 315 315 317 317 317 318 316 316 318 317 316 314 315 316 316 316 317 318 315 315 322 331 335 333
308 308 308 308 309 310 311 311 312 312 312 312 312 312 317 315 317 318 316 316 315 315 314 315 316 316 317 316 317 315 315 315 316 315 316 317 317 318 320 317 319 325 329 331 332
308 308 308 309 310 311 312 312 312 312 312 312 312 314 317 316 320 318 317 317 316 315 316 314 314 318 317 318 315 314 319 319 317 315 316 316 318 322 321 316 322 326 328 330 330
308 309 311 312 312 313 313 313 313 312 312 312 313 317 319 320 317 316 317 317 316 316 315 314 314 317 318 315 316 317 318 321 318 316 316 316 320 321 320 319 320 326 328 330 329
309 311 312 312 312 314 316 317 316 314 315 314 313 314 319 318 318 317 317 316 316 316 315 315 315 316 316 319 319 319 321 321 320 319 317 320 322 322 321 321 318 326 329 330 329
309 311 312 313 315 315 317 317 316 317 315 315 314 317 318 319 318 316 316 316 316 317 318 318 317 319 318 319 318 321 321 320 321 319 322 323 324 323 322 319 322 328 329 329 329
310 311 312 315 315 319 318 316 318 318 317 317 317 318 317 317 317 315 316 316 317 318 319 317 320 319 319 318 318 319 321 321 319 317 323 323 324 323 322 324 326 328 328 328 328
313 312 314 314 317 320 319 319 318 316 321 316 315 316 315 317 319 317 316 318 318 319 316 319 320 317 316 317 319 320 321 320 318 320 323 323 325 323 322 322 326 328 328 328 328
314 312 312 315 320 320 318 318 317 316 320 319 317 317 319 318 319 318 317 316 318 318 317 320 318 316 318 318 320 319 320 320 319 318 321 322 325 325 323 324 324 325 326 327 328
315 313 311 317 320 318 319 318 319 317 327 327 323 320 317 316 318 316 315 317 317 319 317 319 317 318 319 319 318 320 318 318 319 319 321 317 319 325 324 325 324 324 324 322 321
316 314 311 318 319 319 318 318 319 320 327 323 320 316 314 317 317 318 316 318 319 320 320 322 319 319 320 318 317 320 317 318 318 319 319 318 319 323 323 325 324 322 321 319 319
317 315 311 314 315 317 317 319 321 331 329 321 317 317 316 316 316 318 319 319 318 321 322 321 319 318 319 317 317 316 318 317 317 319 321 319 320 321 324 325 324 322 320 319 318
319 317 312 312 315 319 320 319 327 333 325 322 321 319 317 318 318 318 320 323 322 323 324 322 321 320 319 321 318 319 324 326 324 321 320 318 319 320 321 320 323 323 321 319 317
320 321 322 318 321 321 318 324 330 326 322 321 321 320 323 323 321 320 321 323 321 321 323 325 324 321 320 319 321 318 321 322 323 320 319 316 320 320 317 318 319 320 320 318 316
322 322 318 317 320 319 320 326 326 324 321 322 321 323 323 322 322 323 323 323 322 321 325 325 323 319 319 318 318 320 321 316 321 317 320 319 318 317 320 320 320 320 319 318 317
319 321 318 317 319 318 326 325 324 321 320 320 323 323 324 324 324 324 324 323 321 320 319 322 324 319 320 318 316 319 316 321 320 321 320 319 319 319 318 320 321 321 321 319 317
317 322 318 317 318 324 328 324 322 320 320 322 322 322 324 323 323 326 324 322 322 320 319 320 324 322 317 318 318 317 317 316 318 319 320 318 318 316 320 319 318 318 319 319 317
315 323 318 316 323 316 321 319 317 320 319 321 322 322 323 322 323 324 326 323 321 319 322 319 323 323 317 314 314 317 318 319 323 321 318 319 321 318 319 319 319 319 318 316 316
318 319 317 316 322 321 320 319 318 320 320 320 320 319 319 322 324 324 324 319 319 320 321 318 322 325 318 317 317 319 318 317 317 317 318 318 316 318 317 317 316 316 316 316 315
316 320 318 316 314 320 321 321 321 319 319 319 320 319 321 321 321 323 324 318 319 319 316 317 318 323 325 320 316 318 319 318 318 323 316 315 315 317 317 318 317 317 316 316 315
313 317 314 317 317 318 318 319 321 321 318 318 320 320 321 323 322 322 321 319 317 318 318 320 323 317 316 314 315 317 319 319 318 316 316 315 318 318 318 318 318 317 316 315 314
316 316 313 314 314 318 317 320 321 319 318 318 321 320 319 322 321 322 320 320 321 318 321 317 325 321 320 318 319 320 318 317 316 316 316 317 320 318 318 317 317 315 315 314 314
308 309 314 311 317 318 318 319 319 318 316 316 318 319 319 318 319 318 317 316 316 318 321 322 323 321 316 316 315 319 316 316 317 319 319 320 318 318 316 315 315 315 315 314 313
Wind_Speed
3 3 3 2 3 4 4 4 4 5 5 6 7 9 11 13 8 3 1 1 1 4 5 3 1 2 2 3 2 2 2 4 5 7 4 3 7 4 1 7 3 3 0 4 13
3 3 3 3 5 4 4 4 4 5 6 7 9 11 14 11 3 5 4 2 2 4 4 5 2 2 3 2 2 1 2 5 3 3 7 3 3 7 5 6 4 5 5 7 15
4 4 4 4 5 4 3 4 5 6 7 9 10 13 12 6 1 3 5 4 4 5 4 1 2 1 3 1 2 2 2 4 3 2 6 8 5 2 12 3 7 13 11 9 14
5 4 4 4 3 2 3 4 5 7 8 10 12 14 8 2 3 2 5 5 6 6 4 2 2 2 3 3 2 2 1 2 4 5 5 6 6 8 9 7 8 5 10 9 10
5 5 4 2 1 2 4 5 6 7 9 10 11 15 3 2 3 3 3 5 5 4 4 2 5 2 3 2 3 3 3 3 5 5 5 7 7 8 12 14 5 10 11 11 11
5 4 3 2 2 3 5 6 7 8 8 9 11 12 2 3 1 4 5 5 5 2 2 3 3 2 5 2 2 4 7 5 6 4 4 6 6 1 10 15 7 13 11 11 14
5 4 3 2 3 4 6 7 8 8 8 8 10 8 1 1 3 6 4 6 5 1 2 2 3 0 3 4 2 5 7 7 10 4 3 1 5 9 13 8 10 12 12 13 15
4 3 3 3 5 6 7 8 8 8 7 7 8 4 3 2 6 4 3 3 3 2 1 1 3 5 2 4 4 3 2 3 8 6 4 5 9 8 14 7 10 11 12 14 11
3 3 3 4 6 8 10 11 8 6 5 5 2 3 2 6 4 6 2 1 5 1 3 4 3 3 3 3 3 3 5 6 3 9 1 4 2 13 13 5 11 13 14 13 12
4 3 4 5 8 12 7 4 3 1 0 1 1 1 2 3 5 7 3 2 2 1 2 4 3 2 3 2 4 4 4 4 4 6 10 5 7 11 14 2 11 13 14 13 11
6 3 4 6 10 12 5 2 3 1 2 1 1 2 3 7 4 1 2 0 2 6 2 3 2 4 4 3 5 7 6 5 3 3 4 7 8 12 10 8 11 13 13 12 10
9 3 3 6 7 9 14 5 2 2 4 1 4 5 6 3 2 3 1 2 3 3 1 2 4 0 6 8 9 6 6 3 5 5 3 3 8 8 9 5 8 13 13 11 10
12 4 3 6 3 5 9 5 9 5 1 4 3 3 1 5 1 2 1 1 3 4 5 4 3 5 7 8 7 3 3 2 2 4 5 5 3 4 6 7 8 8 9 10 11
14 4 2 4 2 4 2 13 9 9 1 3 0 0 2 1 2 1 2 1 2 3 1 5 2 7 4 3 1 2 3 3 3 3 4 2 2 2 5 6 8 9 10 9 7
13 4 1 3 2 2 6 15 4 2 2 2 1 0 1 1 1 3 4 2 3 3 2 2 2 2 2 1 2 3 2 2 1 3 2 4 4 5 8 9 12 11 9 6 4
11 5 2 1 2 4 14 5 2 1 2 2 2 1 2 3 1 1 2 6 2 3 6 2 1 2 2 3 3 8 2 3 2 1 4 3 2 7 10 16 14 12 9 6 4
9 6 5 6 3 12 12 2 0 2 2 4 2 3 2 3 2 3 1 2 0 1 0 3 3 3 2 3 3 2 2 4 3 2 3 3 4 4 14 7 15 15 11 7 5
6 7 8 13 9 9 4 2 2 1 2 2 3 3 3 7 3 5 1 3 3 2 2 3 3 5 6 3 2 3 1 3 5 5 5 3 5 1 1 1 3 5 9 8 6
4 5 10 16 7 6 3 3 2 0 3 4 1 3 3 3 2 2 3 1 3 2 3 4 3 1 6 2 3 4 2 2 1 1 3 2 1 4 1 4 4 6 7 7 5
3 2 8 15 6 4 3 2 1 2 4 1 2 2 4 5 4 4 2 2 1 2 2 3 2 1 2 0 10 1 5 2 1 3 4 3 3 4 0 3 3 5 8 5 2
4 2 13 9 4 5 3 1 2 3 2 2 2 2 2 1 1 2 2 3 5 3 2 2 1 2 1 5 3 1 2 4 1 2 3 4 1 2 4 6 8 10 5 3 4
3 1 14 6 3 1 2 3 4 3 4 3 3 2 1 0 1 0 1 2 7 3 1 2 2 2 3 4 2 2 3 2 2 2 1 2 5 2 2 4 4 3 2 4 6
2 2 8 6 2 2 2 1 1 4 3 4 2 2 2 1 2 0 1 1 6 2 2 3 1 2 2 2 2 1 3 3 3 1 6 5 2 2 1 2 1 3 5 7 9
2 2 4 5 2 2 3 3 4 4 1 2 2 1 2 1 3 1 2 3 3 3 6 2 2 3 6 2 1 3 6 3 3 3 3 8 14 10 6 4 4 7 9 10 11
4 2 1 3 3 3 1 1 2 3 2 0 1 1 2 2 1 1 1 1 2 1 2 1 3 2 1 2 3 5 5 5 8 7 6 4 10 13 4 5 7 11 12 12 15
2 2 1 1 2 2 1 1 1 4 2 1 3 3 2 2 3 2 4 2 2 1 2 2 2 1 2 1 4 8 6 7 11 8 12 10 9 2 4 7 10 15 15 15 16
2 2 2 2 1 2 1 1 1 5 3 3 2 4 3 1 1 2 2 4 3 0 2 1 4 2 2 1 5 8 1 3 2 3 3 5 7 3 8 12 14 16 16 16 17
Wind_Direction
61 48 45 66 94 105 94 65 42 33 22 14 2 353 344 339 346 47 72 127 49 353 1 23 72 354 84 87 82 161 121 145 144 175 161 173 157 106 40 117 71 360 83 88 125
69 56 63 88 106 103 82 52 35 24 12 3 356 349 344 346 51 49 21 44 5 355 351 21 40 69 85 75 47 65 127 164 172 143 153 129 124 120 138 134 84 119 105 120 146
69 65 82 102 107 96 64 31 15 5 359 357 355 352 346 356 68 31 32 26 3 352 345 56 88 73 84 49 46 108 103 157 147 124 135 139 123 71 139 166 176 171 166 149 152
74 72 90 105 102 69 22 3 356 354 354 356 356 353 352 22 95 3 3 347 353 8 38 63 63 80 84 102 54 134 75 140 110 127 124 140 117 117 37 347 264 206 136 127 133
69 75 87 91 60 3 347 343 343 345 347 351 354 352 4 67 89 15 354 349 6 29 46 39 46 100 97 114 124 84 117 64 55 82 80 116 115 109 26 345 275 133 103 112 114
64 73 79 72 15 340 330 328 328 331 334 343 347 352 26 96 342 8 2 356 351 25 47 37 53 101 96 78 54 78 84 62 24 49 70 125 94 116 358 335 166 140 112 108 112
53 59 64 43 353 329 322 318 316 316 320 331 339 355 32 172 329 335 5 358 21 25 14 121 135 72 143 118 34 108 106 64 29 349 59 74 101 51 347 345 161 149 129 122 131
46 43 27 2 341 330 321 309 302 296 303 319 328 345 279 340 333 359 355 344 7 30 328 138 113 93 31 121 48 71 84 133 26 0 47 219 171 43 356 334 179 165 148 140 121
21 11 353 346 340 334 315 297 279 278 296 306 325 10 352 351 15 343 318 287 324 83 57 103 82 78 137 124 125 44 142 138 104 29 301 7 70 353 355 312 173 169 156 139 123
7 349 343 348 348 340 341 70 134 224 48 10 353 223 351 328 311 318 302 311 23 52 144 51 57 127 105 170 205 157 137 104 108 19 47 60 27 3 8 18 155 153 143 140 127
12 359 358 354 356 20 84 74 10 28 34 297 308 269 284 305 310 329 336 141 43 58 64 31 171 172 167 146 131 131 137 120 96 23 79 55 35 14 22 78 134 142 142 133 123
12 6 358 354 16 53 57 75 104 296 316 307 262 274 269 270 325 339 35 38 45 55 342 124 92 129 110 122 123 117 123 96 113 100 93 113 58 35 37 70 140 144 141 135 132
4 352 343 358 36 50 61 70 337 192 252 302 229 244 267 170 260 338 23 79 59 56 49 94 65 147 131 123 119 84 122 157 92 126 88 152 101 43 52 94 121 127 130 133 140
1 359 347 358 95 13 60 346 338 162 38 3 58 150 166 209 19 330 56 93 58 62 100 62 55 139 122 107 209 159 179 162 161 214 294 221 289 162 150 146 160 155 156 143 127
3 15 97 55 74 63 329 337 124 172 88 346 62 43 78 186 333 42 12 51 67 32 263 75 130 137 124 107 205 98 104 46 52 184 234 181 252 128 172 195 190 187 178 159 135
8 25 91 98 37 355 335 347 140 239 84 43 4 13 134 25 28 340 60 52 74 64 36 37 346 10 82 74 70 141 114 74 93 155 239 126 299 186 191 211 196 194 194 180 165
16 42 65 50 346 333 343 70 183 70 323 4 359 4 78 357 7 344 59 50 216 156 29 11 21 11 24 135 89 98 345 302 248 233 327 122 270 313 209 209 207 197 189 173 170
28 60 76 25 350 349 8 68 83 328 13 355 8 68 76 5 43 7 36 173 61 81 135 196 189 5 356 34 60 56 305 288 292 284 309 146 246 88 13 354 135 161 164 170 187
46 82 35 353 1 354 79 74 114 239 321 335 87 64 43 29 348 68 42 33 26 352 215 172 195 309 34 43 328 137 196 50 133 93 259 280 226 223 94 136 138 147 178 193 197
19 72 18 351 356 42 77 114 137 277 322 16 79 13 29 9 16 13 22 18 32 9 296 153 170 24 82 184 55 356 118 219 182 270 267 208 257 261 21 246 213 239 230 218 223
34 67 355 354 25 51 82 83 313 316 335 25 142 110 93 32 350 20 14 37 4 23 70 125 266 138 236 23 329 219 160 63 48 295 284 300 245 62 323 325 300 309 267 280 308
22 71 350 12 43 24 74 335 334 341 9 36 83 97 139 128 6 341 250 345 350 316 52 42 87 84 38 9 237 91 104 109 207 191 233 300 275 23 312 321 334 20 353 319 300
32 312 353 13 78 33 346 341 322 8 16 21 81 27 64 100 279 332 116 0 357 50 133 165 40 140 157 181 164 132 117 95 87 46 242 274 303 116 236 260 357 324 312 300 298
8 12 2 45 41 55 13 11 338 340 74 75 120 126 116 138 31 187 170 8 8 74 69 84 127 234 265 3 80 209 180 180 210 202 279 260 298 311 306 258 284 289 290 291 297
15 59 32 4 39 35 317 319 317 321 29 65 120 137 151 183 237 239 220 196 78 15 53 28 221 216 276 257 244 264 241 224 221 239 239 296 302 322 318 282 291 293 298 300 306
34 351 70 77 316 307 28 133 305 322 276 226 212 135 133 172 231 259 196 223 238 92 66 15 146 184 268 309 262 267 257 236 248 252 245 274 293 264 279 281 291 302 315 310 317
51 93 304 68 49 269 163 351 126 334 259 307 222 146 169 35 170 27 70 66 61 183 133 91 141 161 259 335 297 263 138 219 245 206 254 287 335 299 308 320 317 320 315 313 317